SALSAT

Last updated on Fri Dec 19 2025 00:03:11 GMT+0000 (Coordinated Universal Time)

1 46495U 20068K 25352.49730257 .00007375 00000+0 28596-3 0 9992 2 46495 97.8779 340.0804 0009392 206.2655 153.8107 15.26420702287769
UTC large
Height (km)
Speed (km/s)
/
Latitude / Longitude
Inclination (degrees)
Orbital Period (minutes)
Azimuth
Elevation
Range (km)
Doppler Factor

Next 0 passes for location: London (51.5072 / 0.1276)

Sorry there are no passes over London.